N375MD KFAY-KFIN

Flight info

Callsign N375MD
Flight time N/A
Altitude 8000
Route FAY V157 FLO V437 CHS V1 STARY T353 FOXAM
Aircraft DHC2/L-SDFG/C

Departure

Time 2026-04-12 16:16
Airport Fayetteville Regional Airport - Grannis Field (KFAY)

Arrival

Time N/A
Airport Flagler Executive Airport (KFIN)
Time Latitude Longitude Altitude Speed Heading
2026-04-12 16:16 34.93814 -78.85309 3229 ft 132 kts 221°
2026-04-12 16:16 34.93112 -78.86086 3244 ft 138 kts 219°
2026-04-12 16:17 34.92384 -78.86890 3227 ft 140 kts 219°
2026-04-12 16:17 34.91686 -78.87676 3273 ft 135 kts 220°
2026-04-12 16:17 34.90996 -78.88438 3391 ft 128 kts 220°
2026-04-12 16:17 34.90370 -78.89198 3501 ft 127 kts 229°
2026-04-12 16:18 34.89849 -78.90045 3639 ft 126 kts 230°
2026-04-12 16:18 34.89312 -78.90862 3783 ft 119 kts 230°
2026-04-12 16:18 34.88800 -78.91630 3934 ft 117 kts 229°
2026-04-12 16:18 34.88272 -78.92410 4070 ft 120 kts 231°
2026-04-12 16:19 34.87754 -78.93170 4218 ft 114 kts 230°
2026-04-12 16:19 34.87255 -78.93906 4369 ft 114 kts 230°
2026-04-12 16:19 34.86810 -78.94711 4515 ft 115 kts 240°
2026-04-12 16:19 34.86413 -78.95562 4654 ft 117 kts 238°
2026-04-12 16:20 34.86025 -78.96443 4803 ft 116 kts 241°
2026-04-12 16:20 34.85631 -78.97281 4953 ft 112 kts 238°
2026-04-12 16:20 34.85290 -78.98020 5080 ft 111 kts 239°
2026-04-12 16:20 34.84915 -78.98823 5232 ft 108 kts 239°
2026-04-12 16:21 34.84538 -78.99634 5360 ft 111 kts 239°
2026-04-12 16:21 34.84163 -79.00422 5500 ft 108 kts 239°
2026-04-12 16:21 34.83784 -79.01202 5650 ft 109 kts 239°
2026-04-12 16:21 34.83436 -79.02005 5779 ft 106 kts 254°
2026-04-12 16:22 34.83359 -79.02891 5928 ft 107 kts 253°
2026-04-12 16:22 34.83013 -79.03660 6063 ft 103 kts 224°
2026-04-12 16:22 34.82490 -79.04271 6219 ft 106 kts 224°
2026-04-12 16:22 34.81946 -79.04872 6357 ft 104 kts 223°
2026-04-12 16:23 34.81410 -79.05474 6510 ft 105 kts 221°
2026-04-12 16:23 34.80855 -79.06061 6656 ft 105 kts 219°
2026-04-12 16:23 34.80317 -79.06629 6812 ft 101 kts 219°
2026-04-12 16:23 34.79780 -79.07190 6946 ft 105 kts 219°
2026-04-12 16:24 34.79218 -79.07779 7096 ft 108 kts 220°
2026-04-12 16:24 34.78647 -79.08377 7246 ft 109 kts 220°
2026-04-12 16:24 34.78074 -79.08974 7388 ft 108 kts 219°
2026-04-12 16:24 34.77510 -79.09566 7531 ft 107 kts 219°
2026-04-12 16:25 34.76947 -79.10152 7680 ft 108 kts 219°
2026-04-12 16:25 34.76378 -79.10749 7824 ft 107 kts 219°
2026-04-12 16:25 34.75817 -79.11334 7971 ft 106 kts 218°
2026-04-12 16:25 34.75252 -79.11925 8117 ft 107 kts 218°
2026-04-12 16:26 34.74690 -79.12513 8269 ft 106 kts 217°
2026-04-12 16:26 34.74128 -79.13070 8396 ft 105 kts 215°
2026-04-12 16:26 34.73508 -79.13623 8406 ft 116 kts 213°
2026-04-12 16:26 34.72828 -79.14207 8422 ft 122 kts 213°
2026-04-12 16:27 34.72111 -79.14796 8413 ft 126 kts 211°
2026-04-12 16:27 34.71366 -79.15361 8416 ft 126 kts 210°
2026-04-12 16:27 34.70606 -79.15918 8416 ft 129 kts 210°
2026-04-12 16:27 34.69830 -79.16479 8420 ft 129 kts 209°
2026-04-12 16:28 34.69062 -79.17033 8420 ft 130 kts 208°
2026-04-12 16:28 34.68290 -79.17608 8411 ft 129 kts 210°
2026-04-12 16:28 34.67518 -79.18168 8412 ft 129 kts 208°
2026-04-12 16:28 34.66748 -79.18716 8407 ft 128 kts 208°
2026-04-12 16:29 34.65983 -79.19254 8409 ft 127 kts 208°
2026-04-12 16:29 34.65389 -79.19677 8404 ft 128 kts 209°
2026-04-12 16:30 34.65170 -79.19836 8404 ft 127 kts 210°